Henderson, NV

12:06 PM PDT on July 22, 2017 (GMT -0700)
Henderson

Weather History for KHND - February, 2014

Change the Weather History Date:

Friday, February 28, 2014

  Actual Average (KLAS) Record (KLAS)
Temperature  
Mean Temperature 54 °F -  
Max Temperature 59 °F 65 °F 82 °F (1972)
Min Temperature 50 °F 41 °F 19 °F (1962)
Degree Days  
Heating Degree Days 10    
Growing Degree Days 4 (Base 50)    
Moisture  
Dew Point 43 °F    
Average Humidity 70    
Maximum Humidity 100    
Minimum Humidity 24    
Precipitation  
Precipitation 0.43 in - - ()
Sea Level Pressure  
Sea Level Pressure 29.69 in    
Wind  
Wind Speed 9 mph (SW)    
Max Wind Speed 46 mph    
Max Gust Speed 51 mph    
Visibility 7 miles    
Events Rain    
Averages and records for this station are not official NWS values.
T = Trace of Precipitation, MM = Missing Value Source: NWS Daily Summary

Daily Weather History Graph

Daily Weather History Graph

Search for Another Location

Airport or City:

Trip Planner

Search our weather history database for the weather conditions in past years. The results will help you decide how hot, cold, wet, or windy it might be!

Date:

Astronomy

Feb. 28, 2014 Rise Set
Actual Time 6:11 AM PST 5:34 PM PST
Civil Twilight 5:46 AM PST 6:00 PM PST
Nautical Twilight 5:16 AM PST 6:30 PM PST
Astronomical Twilight 4:46 AM PST 6:59 PM PST
Moon 5:29 AM PST (2/28) 5:15 PM PST (2/28)
Length of Visible Light 12h 14m
Length of Day
11h 22m
Waning Crescent, 0% of the Moon is Illuminated
Feb 28
Waning Crescent
Mar 1
New
Mar 8
First Quarter
Mar 16
Full
Mar 23
Last Quarter

Hourly Weather History & Observations

Time (PST) Temp. Dew Point Humidity Pressure Visibility Wind Dir Wind Speed Gust Speed Precip Events Conditions
12:56 AM 56.8 °F 20.1 °F 24% 29.79 in 10.0 mi WSW 4.6 mph - N/A   Clear
1:56 AM 57.9 °F 21.0 °F 24% 29.78 in 10.0 mi SSE 8.1 mph - N/A   Clear
2:56 AM 57.9 °F 22.1 °F 25% 29.76 in 10.0 mi SSW 8.1 mph - N/A   Clear
3:56 AM 57.9 °F 22.1 °F 25% 29.75 in 10.0 mi South 6.9 mph - N/A   Clear
4:56 AM 59.9 °F 23.0 °F 24% 29.75 in 10.0 mi South 10.4 mph 17.3 mph N/A   Scattered Clouds
5:56 AM 54.9 °F 39.9 °F 57% 29.77 in 10.0 mi SE 5.8 mph - 0.00 in Rain Heavy Rain
6:56 AM 54.9 °F 41.0 °F 60% 29.78 in 10.0 mi SSE 5.8 mph - 0.00 in   Overcast
7:56 AM 55.9 °F 37.9 °F 51% 29.78 in 10.0 mi Calm Calm - N/A   Overcast
8:56 AM 52.9 °F 45.0 °F 74% 29.80 in 4.0 mi South 12.7 mph - 0.01 in Rain Heavy Rain
9:56 AM 54.0 °F 45.0 °F 72% 29.80 in 6.0 mi West 8.1 mph - 0.02 in Rain Heavy Rain
10:56 AM 55.9 °F 45.9 °F 69% 29.78 in 10.0 mi NNW 8.1 mph - 0.00 in   Overcast
11:56 AM 54.9 °F 45.9 °F 72% 29.77 in 10.0 mi NW 13.8 mph - N/A   Overcast
12:56 PM 54.9 °F 45.9 °F 72% 29.71 in 10.0 mi NW 6.9 mph - 0.00 in   Mostly Cloudy
1:43 PM 53.6 °F 46.4 °F 77% 29.71 in 3.0 mi NW 8.1 mph - 0.03 in   Mostly Cloudy
1:56 PM 52.9 °F 46.9 °F 80% 29.67 in 6.0 mi NNW 4.6 mph - 0.05 in   Overcast
2:56 PM 52.0 °F 50.0 °F 93% 29.65 in 3.0 mi WNW 8.1 mph - 0.11 in Rain Heavy Rain
3:03 PM 51.8 °F 51.8 °F 100% 29.66 in 3.0 mi WNW 6.9 mph - 0.03 in Rain Heavy Rain
3:31 PM 51.8 °F 51.8 °F 100% 29.64 in 3.0 mi Calm Calm - 0.09 in   Overcast
3:56 PM 52.9 °F 52.9 °F 100% 29.62 in 3.0 mi Calm Calm - 0.12 in   Mostly Cloudy
4:05 PM 53.6 °F 53.6 °F 100% 29.63 in 2.5 mi SW 4.6 mph - 0.01 in   Mostly Cloudy
4:12 PM 53.6 °F 53.6 °F 100% 29.62 in 8.0 mi Variable 3.5 mph - 0.01 in   Mostly Cloudy
4:34 PM 57.2 °F 53.6 °F 88% 29.60 in 8.0 mi SSE 15.0 mph - 0.01 in   Mostly Cloudy
4:56 PM 55.9 °F 54.0 °F 93% 29.59 in 8.0 mi Variable 4.6 mph - 0.01 in   Mostly Cloudy
5:03 PM 55.4 °F 53.6 °F 94% 29.61 in 10.0 mi WSW 5.8 mph - N/A   Overcast
5:56 PM 59.0 °F 48.9 °F 69% 29.56 in 10.0 mi South 16.1 mph - N/A   Scattered Clouds
6:56 PM 59.0 °F 46.9 °F 64% 29.55 in 10.0 mi SSW 19.6 mph - N/A   Partly Cloudy
7:29 PM 53.6 °F 46.4 °F 77% 29.63 in 1.8 mi SSW 46.0 mph 50.6 mph 0.05 in   Mostly Cloudy
7:32 PM 53.6 °F 46.4 °F 77% 29.64 in 3.0 mi SSW 41.4 mph 50.6 mph 0.08 in   Mostly Cloudy
7:56 PM 52.9 °F 43.0 °F 69% 29.64 in 3.0 mi SW 25.3 mph 36.8 mph 0.11 in   Mostly Cloudy
8:56 PM 50.9 °F 43.0 °F 74% 29.65 in 8.0 mi SSW 20.7 mph 33.4 mph N/A   Mostly Cloudy
9:56 PM 52.0 °F 41.9 °F 69% 29.68 in 10.0 mi South 19.6 mph 26.5 mph N/A   Clear
10:56 PM 50.0 °F 41.0 °F 71% 29.68 in 10.0 mi SW 15.0 mph - N/A   Clear
11:56 PM 50.9 °F 37.9 °F 61% 29.66 in 10.0 mi SSW 20.7 mph 27.6 mph N/A   Clear